{"data":{"norad_id":58934,"intl_designator":"2024-027D","name":"STARLINK-31337","alt_names":[],"object_type":"PAYLOAD","status":"ACTIVE","operator":null,"country":"US","launch_date":"2024-02-10","launch_site_code":"AFWTR","launch_vehicle":null,"mission":null,"orbit_class":"UNKNOWN","rcs_meters":null,"size_class":null,"mass_kg":null,"dimensions":null,"purposes":["comms"],"wikipedia_slug":null,"has_3d_model":false,"image_url":null,"decayed_at":null,"tle_current":{"epoch":"2026-05-25T04:31:00.486912Z","epoch_age_seconds":52168,"freshness":"FRESH","line1":"1 58934U 24027D   26145.18820008  .00001000  00000+0  45912-4 0  9994","line2":"2 58934  53.1604 314.0782 0001150 103.8916 256.2213 15.30189791129041","mean_motion":15.30189791,"eccentricity":0.000115,"inclination_deg":53.1604,"raan_deg":314.0782,"arg_perigee_deg":103.8916,"mean_anomaly_deg":256.2213,"bstar":4.5912e-5,"rev_number":12904,"period_min":94.105973551094,"perigee_km":474.45741282915,"apogee_km":476.03369081607,"semimajor_km":6853.3825518226,"source":"CELESTRAK","updated_at":"2026-05-25T13:38:18.788596Z"}}}